| time (UTC) | temp F | wind direction | speed knots | gust knots | rain 1hr in | rain 24hr in | rain mn in | humidity % | barometer mb |
| 20260906161512 | 55 | 213 | 0.0 | 0.0 | 0.02 | 0.02 | 0.02 | 85 | 1015.6 |
| 20260906160014 | 55 | 213 | 0.0 | 0.9 | 0.02 | 0.02 | 0.02 | 85 | 1016.2 |
| 20260906154518 | 55 | 175 | 0.0 | 3.5 | 0.01 | 0.01 | 0.01 | 82 | 1016.7 |
| 20260906153015 | 55 | 161 | 0.9 | 6.1 | 0.00 | 0.00 | 0.00 | 79 | 1016.7 |
| 20260906151516 | 55 | 163 | 0.0 | 4.3 | 0.00 | 0.00 | 0.00 | 79 | 1016.8 |
| 20260906150038 | 55 | 121 | 0.0 | 1.7 | 0.00 | 0.00 | 0.00 | 79 | 1016.2 |
| 20260906144523 | 55 | 174 | 0.0 | 0.0 | 0.00 | 0.00 | 0.00 | 79 | 1015.5 |
| 20260906143003 | 55 | 174 | 0.0 | 0.0 | 0.00 | 0.00 | 0.00 | 78 | 1015.3 |
| 20260906141507 | 54 | 174 | 0.0 | 0.0 | 0.00 | 0.00 | 0.00 | 76 | 1015.5 |
| 20260906140012 | 54 | 221 | 0.0 | 0.0 | 0.00 | 0.00 | 0.00 | 76 | 1015.5 |
| 20260906134516 | 54 | 221 | 0.0 | 0.0 | 0.00 | 0.00 | 0.00 | 76 | 1015.2 |
| 20260906133014 | 54 | 221 | 0.0 | 0.0 | 0.00 | 0.00 | 0.00 | 76 | 1015.1 |
| 20260906131516 | 54 | 221 | 0.0 | 0.0 | 0.00 | 0.00 | 0.00 | 76 | 1015.1 |
| 20260906130006 | 54 | 221 | 0.0 | 0.0 | 0.00 | 0.00 | 0.00 | 75 | 1015.2 |
| 20260906124514 | 54 | 221 | 0.0 | 0.0 | 0.00 | 0.00 | 0.00 | 75 | 1015.3 |
| 20260906123020 | 54 | 221 | 0.0 | 0.0 | 0.00 | 0.00 | 0.00 | 75 | 1015.4 |
| 20260906121523 | 54 | 221 | 0.0 | 0.0 | 0.00 | 0.00 | 0.00 | 76 | 1015.5 |
| 20260906120007 | 54 | 221 | 0.0 | 0.0 | 0.00 | 0.00 | 0.00 | 77 | 1015.5 |
| 20260906114522 | 54 | 191 | 0.0 | 0.0 | 0.00 | 0.00 | 0.00 | 73 | 1015.5 |
| 20260906113011 | 54 | 191 | 0.0 | 0.0 | 0.00 | 0.00 | 0.00 | 72 | 1015.5 |
| 20260906111522 | 54 | 191 | 0.0 | 0.0 | 0.00 | 0.00 | 0.00 | 72 | 1015.7 |
| 20260906110038 | 54 | 191 | 0.0 | 0.0 | 0.00 | 0.00 | 0.00 | 71 | 1015.5 |
| 20260906104517 | 54 | 191 | 0.0 | 0.0 | 0.00 | 0.00 | 0.00 | 71 | 1015.7 |
| 20260906103018 | 54 | 191 | 0.0 | 0.0 | 0.00 | 0.00 | 0.00 | 71 | 1015.7 |
| 20260906101518 | 54 | 191 | 0.0 | 0.0 | 0.00 | 0.00 | 0.00 | 71 | 1015.7 |
| 20260906100015 | 55 | 183 | 0.0 | 0.0 | 0.00 | 0.00 | 0.00 | 70 | 1015.5 |
| 20260906094557 | 55 | 183 | 0.0 | 0.0 | 0.00 | 0.00 | 0.00 | 70 | 1015.5 |
| 20260906093018 | 55 | 183 | 0.0 | 0.0 | 0.00 | 0.00 | 0.00 | 70 | 1015.4 |
| 20260906091524 | 55 | 183 | 0.0 | 0.0 | 0.00 | 0.00 | 0.00 | 70 | 1015.4 |
| 20260906090029 | 56 | 183 | 0.0 | 0.0 | 0.00 | 0.00 | 0.00 | 70 | 1015.7 |
| 20260906084533 | 56 | 183 | 0.0 | 0.0 | 0.00 | 0.00 | 0.00 | 70 | 1015.8 |
| 20260906083021 | 57 | 183 | 0.0 | 0.0 | 0.00 | 0.00 | 0.00 | 70 | 1015.8 |
| 20260906081536 | 57 | 183 | 0.0 | 0.0 | 0.00 | 0.00 | 0.00 | 70 | 1016.0 |
| 20260906080012 | 57 | 183 | 0.0 | 0.0 | 0.00 | 0.00 | 0.00 | 69 | 1016.0 |
| 20260906074506 | 57 | 183 | 0.0 | 0.0 | 0.00 | 0.00 | 0.00 | 69 | 1016.0 |
| 20260906073007 | 58 | 183 | 0.0 | 1.7 | 0.00 | 0.00 | 0.00 | 68 | 1016.1 |
| 20260906071513 | 58 | 183 | 0.0 | 0.0 | 0.00 | 0.00 | 0.00 | 67 | 1016.4 |
| 20260906070022 | 59 | 183 | 0.0 | 0.0 | 0.00 | 0.00 | 0.00 | 65 | 1016.2 |
| 20260906064515 | 59 | 183 | 0.0 | 0.0 | 0.00 | 0.00 | 0.00 | 65 | 1016.3 |
| 20260906063008 | 60 | 183 | 0.0 | 0.0 | 0.00 | 0.00 | 0.00 | 65 | 1016.3 |
| 20260906061516 | 60 | 183 | 0.0 | 0.0 | 0.00 | 0.00 | 0.00 | 62 | 1016.4 |
| 20260906060008 | 61 | 183 | 0.0 | 0.0 | 0.00 | 0.00 | 0.00 | 61 | 1016.4 |
| 20260906054523 | 61 | 183 | 0.0 | 0.0 | 0.00 | 0.00 | 0.00 | 61 | 1016.5 |
| 20260906053028 | 62 | 183 | 0.0 | 0.0 | 0.00 | 0.00 | 0.00 | 60 | 1016.4 |
| 20260906051509 | 62 | 183 | 0.0 | 0.0 | 0.00 | 0.00 | 0.00 | 59 | 1016.4 |
| 20260906050020 | 63 | 183 | 0.0 | 0.0 | 0.00 | 0.00 | 0.00 | 59 | 1016.4 |
| 20260906044516 | 63 | 183 | 0.0 | 0.9 | 0.00 | 0.00 | 0.00 | 58 | 1016.5 |
| 20260906043012 | 64 | 183 | 0.0 | 0.0 | 0.00 | 0.00 | 0.00 | 58 | 1016.5 |
| 20260906041537 | 64 | 183 | 0.0 | 0.0 | 0.00 | 0.00 | 0.00 | 57 | 1016.5 |
| 20260906040015 | 64 | 183 | 0.0 | 0.0 | 0.00 | 0.00 | 0.00 | 56 | 1016.6 |
| 20260906034521 | 65 | 183 | 0.0 | 0.0 | 0.00 | 0.00 | 0.00 | 55 | 1016.5 |
| 20260906033027 | 65 | 183 | 0.0 | 1.7 | 0.00 | 0.00 | 0.00 | 53 | 1016.4 |
| 20260906031537 | 66 | 100 | 0.0 | 0.0 | 0.00 | 0.00 | 0.00 | 47 | 1016.3 |
| 20260906030017 | 67 | 100 | 0.0 | 0.0 | 0.00 | 0.00 | 0.00 | 48 | 1016.2 |
| 20260906024516 | 68 | 100 | 0.0 | 0.0 | 0.00 | 0.00 | 0.00 | 47 | 1016.2 |
| 20260906023024 | 68 | 100 | 0.0 | 0.0 | 0.00 | 0.00 | 0.00 | 48 | 1016.0 |
| 20260906021532 | 69 | 100 | 0.0 | 0.0 | 0.00 | 0.00 | 0.00 | 47 | 1015.9 |
| 20260906020040 | 70 | 100 | 0.0 | 0.0 | 0.00 | 0.00 | 0.00 | 46 | 1016.0 |
| 20260906014504 | 71 | 100 | 0.0 | 0.0 | 0.00 | 0.00 | 0.00 | 47 | 1015.9 |
| 20260906013003 | 71 | 100 | 0.0 | 0.0 | 0.00 | 0.00 | 0.00 | 46 | 1015.9 |
| 20260906011510 | 72 | 100 | 0.0 | 0.0 | 0.00 | 0.00 | 0.00 | 44 | 1016.0 |
| 20260906010008 | 72 | 100 | 0.0 | 0.9 | 0.00 | 0.00 | 0.00 | 42 | 1015.9 |
| 20260906004512 | 72 | 94 | 0.0 | 0.9 | 0.00 | 0.00 | 0.00 | 42 | 1016.1 |
| 20260906003003 | 73 | 158 | 0.0 | 0.0 | 0.00 | 0.00 | 0.00 | 43 | 1016.1 |
| 20260906001503 | 73 | 158 | 0.0 | 2.6 | 0.00 | 0.00 | 0.00 | 41 | 1016.2 |
| 20260906000004 | 74 | 139 | 0.0 | 1.7 | 0.00 | 0.00 | 0.00 | 43 | 1016.2 |
| 20260905234508 | 74 | 129 | 0.0 | 1.7 | 0.00 | 0.00 | 0.00 | 43 | 1016.2 |
| 20260905233018 | 74 | 135 | 0.0 | 0.9 | 0.00 | 0.00 | 0.00 | 44 | 1016.3 |
| 20260905231506 | 74 | 186 | 0.0 | 2.6 | 0.00 | 0.00 | 0.00 | 43 | 1016.2 |
| 20260905230003 | 75 | 80 | 0.0 | 0.0 | 0.00 | 0.00 | 0.00 | 40 | 1016.3 |
| 20260905224507 | 75 | 327 | 0.0 | 0.0 | 0.00 | 0.00 | 0.00 | 43 | 1016.4 |
| 20260905223025 | 75 | 138 | 0.0 | 0.0 | 0.00 | 0.00 | 0.00 | 43 | 1016.4 |
| 20260905221510 | 75 | 126 | 0.0 | 0.0 | 0.00 | 0.00 | 0.00 | 41 | 1016.4 |
| 20260905220005 | 75 | 122 | 0.0 | 0.0 | 0.00 | 0.00 | 0.00 | 44 | 1016.4 |
| 20260905214508 | 75 | 343 | 0.0 | 0.0 | 0.00 | 0.00 | 0.00 | 45 | 1016.7 |
| 20260905213012 | 74 | 323 | 0.0 | 0.0 | 0.00 | 0.00 | 0.00 | 44 | 1017.0 |
| 20260905211533 | 74 | 337 | 0.0 | 0.0 | 0.00 | 0.00 | 0.00 | 45 | 1017.1 |
| 20260905210011 | 74 | 302 | 0.0 | 0.0 | 0.00 | 0.00 | 0.00 | 44 | 1017.2 |
| 20260905204503 | 74 | 344 | 0.0 | 0.9 | 0.00 | 0.00 | 0.00 | 44 | 1017.2 |
| 20260905203010 | 74 | 168 | 0.0 | 0.0 | 0.00 | 0.00 | 0.00 | 45 | 1017.2 |
| 20260905201516 | 73 | 304 | 0.0 | 0.0 | 0.00 | 0.00 | 0.00 | 46 | 1017.3 |
| 20260905200030 | 72 | 279 | 0.0 | 1.7 | 0.00 | 0.00 | 0.00 | 48 | 1017.4 |
| 20260905194517 | 71 | 333 | 0.0 | 0.9 | 0.00 | 0.00 | 0.00 | 49 | 1017.6 |
| 20260905193008 | 69 | 215 | 0.0 | 0.0 | 0.00 | 0.00 | 0.00 | 51 | 1017.8 |
| 20260905191511 | 68 | 151 | 0.0 | 0.0 | 0.00 | 0.00 | 0.00 | 54 | 1017.8 |
| 20260905190024 | 68 | 322 | 0.0 | 0.0 | 0.00 | 0.00 | 0.00 | 56 | 1017.9 |
| 20260905184534 | 66 | 305 | 0.0 | 0.0 | 0.00 | 0.00 | 0.00 | 58 | 1018.0 |
| 20260905183028 | 66 | 308 | 0.0 | 0.0 | 0.00 | 0.00 | 0.00 | 56 | 1018.1 |
| 20260905181514 | 66 | 320 | 0.0 | 0.0 | 0.00 | 0.00 | 0.00 | 56 | 1018.3 |
| 20260905180016 | 65 | 320 | 0.0 | 0.0 | 0.00 | 0.00 | 0.00 | 60 | 1018.5 |
| 20260905174516 | 64 | 63 | 0.0 | 0.0 | 0.00 | 0.00 | 0.00 | 61 | 1018.6 |
| 20260905173029 | 63 | 330 | 0.0 | 0.0 | 0.00 | 0.00 | 0.00 | 63 | 1018.7 |
| 20260905171542 | 62 | 324 | 0.0 | 0.9 | 0.00 | 0.00 | 0.00 | 63 | 1018.5 |
| 20260905170017 | 61 | 324 | 0.0 | 0.0 | 0.00 | 0.00 | 0.00 | 64 | 1018.5 |
| 20260905164504 | 61 | 314 | 0.0 | 0.0 | 0.00 | 0.00 | 0.00 | 65 | 1018.4 |
| 20260905163003 | 61 | 314 | 0.0 | 0.0 | 0.00 | 0.00 | 0.00 | 65 | 1018.3 |